STARLINK-6167, 57126

Orbit data source: Space-Track

STARLINK-6167, 57126 is a payload satellite owned by SpaceX/Seattle (US) in LEO that was launched on Fri, 23 Jun 2023 UTC via an FALCON 9 launch vehicle from the Air Force Eastern Test Range (AFETR). Payload-class satellites include a variety of spacecraft equipped with specific instruments for various scientific and technological missions. These include communications satellites like Starlink; space stations such as the ISS; scientific satellites like the Hubble; Earth observation satellites from companies like Planet Labs, Umbra, and HawkEye 360; GPS; miniature CubeSats for education and research; and military/defense satellites.

Loading next visibility...
Identifier
57126, 2023-090AB
Orbit
LEO
Country
Flag of USUS
Related business
Manufacturer
SpaceX/Seattle
Mission
Operational Commercial Communications
Bus & Motor
STARLINK, Unknown motor
Mass
305 kg wet, ~290 kg dry
Launch date (UTC)
2023-06-23 (3 years ago)
Launch vehicle
FALCON 9
Launch site
Air Force Eastern Test Range (AFETR)
Object type
Payload
Rocket body
Debris
Shape & HBR
Box + 1 Pan, 10.1 m
Radar Cross Section
11.087 m², Large (>1 m²)

Expand to show TLE details & history
Last TLE update: 2 days ago

TLE from 2 days ago
0 STARLINK-6167
1 57126U 23090AB  26171.38639022  .00000371  00000-0  22994-4 0  9996
2 57126  43.0029  61.9802 0001104 224.0283 136.0481 15.27578985166030
Epoch: 2026-06-20T09:16Z
TLE epoch observation values (Epoch: 2026-06-20T09:16:24.115Z)
Latitude
0.00001°
Longitude
14.27798°
Altitude
483.373 km
Speed
7.625 km/s
True Right ascension
04h 07m 55s
True Declination
0° 00' 00"
Sunlit
Object was in daylight at epoch
Visualization orbit readout
Latitude
Unknown
Longitude
Unknown
Altitude
Unknown
Speed
Unknown
Apparent Right ascension
Unknown
Apparent Declination
Unknown
Sunlit
N/A
Visualization observer readout
Local Sidereal Time
21:49:33
Azimuth
Unknown
Elevation
Unknown
Doppler factor
Unknown
Orbital elements
Apogee altitude
485.755 km
Perigee altitude
484.239 km
Semi-major axis
6,863.134 km
Eccentricity
0.00011
Inclination
43.0029°
RAAN
61.9802°
Arg. of periapsis
224.0283°
True anomaly
136.05688°
Mean anomaly
136.0481°
Eccentric anomaly
136.05249°
Mean motion
3.81733 °/min
Orbital period
94.31 mins
BSTAR
0.000022994
Loading maneuver chart data...
Computing Atmospheric mass density...

Documentation

Showing up to 5 results
|